AAL1187 KPHX-KMCO

Flight info

Callsign AAL1187
Flight time 3h 47m
Altitude 35000
Route ECLPS1 PHASE ELP FST J86 LEV Y280 CHRGE PRICY5
Aircraft A321/M-SDE3FGHIRWY/LB1

Departure

Time 2026-04-23 10:35
Airport Phoenix Sky Harbor International Airport (KPHX)

Arrival

Time 2026-04-23 14:23
Airport Orlando International Airport (KMCO)
Time Latitude Longitude Altitude Speed Heading
2026-04-23 09:48 33.43722 -111.99869 1115 ft 0 kts 270°
2026-04-23 10:23 33.43722 -111.99855 1115 ft 4 kts 272°
2026-04-23 10:23 33.43719 -111.99829 1109 ft 4 kts 329°
2026-04-23 10:24 33.43698 -111.99826 1113 ft 4 kts
2026-04-23 10:24 33.43693 -111.99826 1117 ft 0 kts
2026-04-23 10:27 33.43695 -111.99826 1115 ft 1 kts
2026-04-23 10:27 33.43703 -111.99826 1120 ft 2 kts
2026-04-23 10:27 33.43722 -111.99826 1113 ft 3 kts
2026-04-23 10:27 33.43749 -111.99826 1121 ft 4 kts
2026-04-23 10:28 33.43781 -111.99826 1122 ft 6 kts
2026-04-23 10:28 33.43826 -111.99826 1121 ft 7 kts 360°
2026-04-23 10:28 33.43873 -111.99827 1120 ft 7 kts 358°
2026-04-23 10:28 33.43913 -111.99831 1117 ft 3 kts 355°
2026-04-23 10:29 33.43932 -111.99833 1120 ft 2 kts 355°
2026-04-23 10:29 33.43943 -111.99833 1122 ft 1 kts
2026-04-23 10:29 33.43944 -111.99832 1123 ft 0 kts
2026-04-23 10:29 33.43953 -111.99828 1119 ft 3 kts 25°
2026-04-23 10:30 33.43969 -111.99810 1121 ft 3 kts 55°
2026-04-23 10:30 33.43973 -111.99789 1120 ft 2 kts 83°
2026-04-23 10:30 33.43973 -111.99765 1122 ft 4 kts 90°
2026-04-23 10:30 33.43973 -111.99715 1124 ft 8 kts 90°
2026-04-23 10:31 33.43972 -111.99638 1128 ft 10 kts 90°
2026-04-23 10:31 33.43972 -111.99554 1128 ft 10 kts 90°
2026-04-23 10:31 33.43972 -111.99464 1128 ft 11 kts 88°
2026-04-23 10:31 33.43973 -111.99381 1128 ft 9 kts 90°
2026-04-23 10:32 33.43973 -111.99310 1128 ft 8 kts 90°
2026-04-23 10:32 33.43975 -111.99249 1124 ft 6 kts 69°
2026-04-23 10:32 33.43990 -111.99233 1134 ft 1 kts 38°
2026-04-23 10:32 33.43994 -111.99230 1133 ft 2 kts 30°
2026-04-23 10:33 33.44009 -111.99224 1133 ft 3 kts 14°
2026-04-23 10:33 33.44026 -111.99223 1135 ft 2 kts
2026-04-23 10:33 33.44045 -111.99223 1137 ft 3 kts 358°
2026-04-23 10:33 33.44078 -111.99235 1140 ft 8 kts 321°
2026-04-23 10:34 33.44084 -111.99277 1137 ft 3 kts 266°
2026-04-23 10:34 33.44083 -111.99302 1135 ft 3 kts 270°
2026-04-23 10:34 33.44083 -111.99331 1135 ft 6 kts 270°
2026-04-23 10:34 33.44084 -111.99596 1136 ft 66 kts 270°
2026-04-23 10:35 33.44083 -112.00401 1129 ft 126 kts 270°
2026-04-23 10:35 33.44085 -112.01645 1132 ft 172 kts 270°
2026-04-23 10:35 33.44080 -112.03159 1538 ft 180 kts 270°
2026-04-23 10:35 33.43925 -112.04666 2102 ft 186 kts 253°
2026-04-23 10:36 33.43432 -112.06083 2757 ft 183 kts 245°
2026-04-23 10:36 33.42850 -112.07439 3281 ft 184 kts 246°
2026-04-23 10:36 33.42346 -112.08835 3780 ft 183 kts 249°
2026-04-23 10:36 33.41888 -112.10236 4257 ft 183 kts 251°
2026-04-23 10:37 33.41434 -112.11690 4742 ft 185 kts 251°
2026-04-23 10:37 33.40999 -112.13120 5196 ft 186 kts 251°
2026-04-23 10:37 33.40551 -112.14621 5440 ft 201 kts 251°
2026-04-23 10:37 33.40060 -112.16275 5579 ft 221 kts 250°
2026-04-23 10:38 33.39121 -112.17811 5696 ft 244 kts 216°
2026-04-23 10:38 33.37450 -112.18431 5899 ft 268 kts 179°
2026-04-23 10:38 33.35565 -112.18050 6389 ft 278 kts 168°
2026-04-23 10:38 33.33691 -112.17411 7010 ft 282 kts 165°
2026-04-23 10:39 33.31810 -112.16680 7639 ft 285 kts 165°
2026-04-23 10:39 33.29943 -112.15836 8266 ft 291 kts 156°
2026-04-23 10:39 33.28248 -112.14470 8900 ft 298 kts 142°
2026-04-23 10:39 33.26756 -112.12710 9508 ft 302 kts 138°
2026-04-23 10:40 33.25287 -112.10918 10173 ft 304 kts 135°
2026-04-23 10:40 33.24036 -112.08824 10533 ft 321 kts 122°
2026-04-23 10:40 33.23160 -112.06272 10659 ft 344 kts 109°
2026-04-23 10:40 33.22435 -112.03458 10801 ft 364 kts 109°
2026-04-23 10:41 33.21672 -112.00505 10988 ft 379 kts 109°
2026-04-23 10:41 33.20884 -111.97465 11417 ft 386 kts 109°
2026-04-23 10:41 33.20081 -111.94384 11906 ft 391 kts 109°
2026-04-23 10:41 33.19263 -111.91255 12398 ft 396 kts 109°
2026-04-23 10:42 33.18435 -111.88097 12892 ft 402 kts 109°
2026-04-23 10:42 33.17595 -111.84897 13399 ft 407 kts 109°
2026-04-23 10:42 33.16743 -111.81656 13880 ft 412 kts 109°
2026-04-23 10:42 33.15890 -111.78422 14340 ft 416 kts 110°
2026-04-23 10:43 33.15014 -111.75113 14805 ft 420 kts 110°
2026-04-23 10:43 33.14133 -111.71776 15282 ft 424 kts 110°
2026-04-23 10:43 33.13243 -111.68411 15778 ft 427 kts 110°
2026-04-23 10:43 33.12345 -111.65014 16297 ft 430 kts 110°
2026-04-23 10:44 33.11439 -111.61596 16770 ft 434 kts 110°
2026-04-23 10:44 33.10525 -111.58156 17240 ft 437 kts 110°
2026-04-23 10:44 33.09599 -111.54678 17678 ft 441 kts 110°
2026-04-23 10:44 33.08665 -111.51181 18121 ft 445 kts 110°
2026-04-23 10:45 33.07715 -111.47651 18513 ft 448 kts 112°
2026-04-23 10:45 33.06494 -111.44250 18962 ft 446 kts 121°
2026-04-23 10:45 33.04895 -111.41096 19381 ft 445 kts 128°
2026-04-23 10:45 33.03190 -111.37998 19791 ft 448 kts 128°
2026-04-23 10:46 33.01475 -111.34879 20192 ft 452 kts 127°
2026-04-23 10:46 32.99749 -111.31736 20591 ft 455 kts 127°
2026-04-23 10:46 32.98012 -111.28571 20972 ft 458 kts 127°
2026-04-23 10:46 32.96264 -111.25385 21357 ft 461 kts 127°
2026-04-23 10:47 32.94505 -111.22176 21727 ft 464 kts 127°
2026-04-23 10:47 32.92728 -111.18941 22094 ft 467 kts 127°
2026-04-23 10:47 32.90944 -111.15695 22454 ft 470 kts 128°
2026-04-23 10:47 32.89145 -111.12427 22789 ft 473 kts 127°
2026-04-23 10:48 32.87332 -111.09142 23127 ft 477 kts 127°
2026-04-23 10:48 32.85505 -111.05836 23463 ft 480 kts 127°
2026-04-23 10:48 32.83668 -111.02513 23738 ft 483 kts 128°
2026-04-23 10:48 32.81839 -110.99206 24015 ft 486 kts 128°
2026-04-23 10:49 32.79951 -110.95798 24288 ft 489 kts 128°
2026-04-23 10:49 32.78097 -110.92458 24552 ft 492 kts 128°
2026-04-23 10:49 32.76188 -110.89017 24808 ft 495 kts 128°
2026-04-23 10:49 32.74314 -110.85637 25056 ft 498 kts 128°
2026-04-23 10:50 32.72401 -110.82195 25315 ft 500 kts 128°
2026-04-23 10:50 32.70471 -110.78736 25558 ft 503 kts 128°
2026-04-23 10:50 32.68532 -110.75265 25787 ft 506 kts 128°
2026-04-23 10:50 32.66588 -110.71773 26038 ft 509 kts 127°
2026-04-23 10:51 32.64865 -110.68070 26282 ft 517 kts 117°
2026-04-23 10:51 32.63591 -110.64060 26509 ft 523 kts 108°
2026-04-23 10:51 32.62671 -110.59863 26726 ft 526 kts 106°
2026-04-23 10:51 32.61761 -110.55650 26952 ft 529 kts 106°
2026-04-23 10:52 32.60834 -110.51418 27182 ft 531 kts 106°
2026-04-23 10:52 32.59895 -110.47172 27403 ft 534 kts 106°
2026-04-23 10:52 32.58944 -110.42899 27666 ft 536 kts 106°
2026-04-23 10:52 32.57990 -110.38620 27885 ft 539 kts 106°
2026-04-23 10:53 32.57031 -110.34318 28143 ft 541 kts 106°
2026-04-23 10:53 32.56063 -110.29991 28419 ft 544 kts 106°
2026-04-23 10:53 32.55088 -110.25650 28657 ft 546 kts 106°
2026-04-23 10:53 32.54108 -110.21289 28826 ft 549 kts 106°
2026-04-23 10:54 32.53128 -110.16922 29191 ft 548 kts 106°
2026-04-23 10:54 32.52150 -110.12558 29539 ft 548 kts 106°
2026-04-23 10:54 32.51173 -110.08199 29829 ft 549 kts 106°
2026-04-23 10:54 32.50191 -110.03821 30079 ft 549 kts 106°
2026-04-23 10:55 32.49208 -109.99451 30315 ft 550 kts 106°
2026-04-23 10:55 32.48217 -109.95063 30554 ft 551 kts 106°
2026-04-23 10:55 32.47223 -109.90676 30775 ft 553 kts 106°
2026-04-23 10:55 32.46225 -109.86279 31009 ft 554 kts 106°
2026-04-23 10:56 32.45220 -109.81869 31244 ft 555 kts 106°
2026-04-23 10:56 32.44215 -109.77457 31483 ft 556 kts 106°
2026-04-23 10:56 32.43440 -109.72967 31702 ft 557 kts 98°
2026-04-23 10:56 32.42876 -109.68432 31914 ft 558 kts 98°
2026-04-23 10:57 32.42308 -109.63879 32129 ft 559 kts 98°
2026-04-23 10:57 32.41735 -109.59326 32348 ft 560 kts 98°
2026-04-23 10:57 32.41156 -109.54771 32565 ft 561 kts 98°
2026-04-23 10:57 32.40580 -109.50264 32770 ft 562 kts 98°
2026-04-23 10:58 32.39994 -109.45688 32949 ft 562 kts 98°
2026-04-23 10:58 32.39407 -109.41109 33179 ft 563 kts 98°
2026-04-23 10:58 32.38818 -109.36530 33396 ft 563 kts 98°
2026-04-23 10:58 32.38226 -109.31946 33617 ft 564 kts 97°
2026-04-23 10:59 32.37632 -109.27358 33822 ft 565 kts 97°
2026-04-23 10:59 32.37034 -109.22755 34008 ft 566 kts 97°
2026-04-23 10:59 32.36437 -109.18163 34204 ft 566 kts 98°
2026-04-23 10:59 32.35811 -109.13567 34407 ft 566 kts 99°
2026-04-23 11:00 32.35090 -109.08992 34630 ft 565 kts 101°
2026-04-23 11:00 32.34280 -109.04442 34806 ft 565 kts 102°
2026-04-23 11:00 32.32536 -108.95377 34858 ft 565 kts 103°
2026-04-23 11:01 32.30831 -108.86365 34858 ft 565 kts 102°
2026-04-23 11:01 32.29210 -108.77317 34845 ft 555 kts 101°
2026-04-23 11:02 32.28434 -108.72915 35067 ft 540 kts 101°
2026-04-23 11:02 32.27675 -108.68612 35062 ft 529 kts 101°
2026-04-23 11:02 32.26158 -108.60149 35056 ft 525 kts 102°
2026-04-23 11:03 32.24614 -108.51736 35001 ft 524 kts 102°
2026-04-23 11:03 32.23062 -108.43325 34955 ft 524 kts 102°
2026-04-23 11:04 32.21521 -108.34960 34891 ft 519 kts 102°
2026-04-23 11:04 32.19982 -108.26639 34858 ft 518 kts 102°
2026-04-23 11:05 32.18460 -108.18373 34859 ft 518 kts 102°
2026-04-23 11:05 32.16917 -108.10068 34858 ft 518 kts 102°
2026-04-23 11:06 32.14583 -107.97609 34856 ft 518 kts 102°
2026-04-23 11:07 32.13025 -107.89304 34856 ft 518 kts 102°
2026-04-23 11:07 32.11464 -107.81008 34986 ft 518 kts 102°
2026-04-23 11:08 32.09895 -107.72714 34998 ft 518 kts 102°
2026-04-23 11:08 32.08583 -107.65819 34986 ft 518 kts 102°
2026-04-23 11:09 32.07003 -107.57533 34942 ft 517 kts 102°
2026-04-23 11:09 32.05422 -107.49248 34906 ft 518 kts 102°
2026-04-23 11:10 32.03832 -107.40962 34863 ft 518 kts 102°
2026-04-23 11:10 32.02236 -107.32685 34852 ft 518 kts 102°
2026-04-23 11:11 32.00635 -107.24413 34857 ft 517 kts 102°
2026-04-23 11:11 31.99030 -107.16154 34845 ft 517 kts 102°
2026-04-23 11:12 31.97426 -107.07899 34834 ft 516 kts 102°
2026-04-23 11:12 31.95819 -106.99660 34869 ft 516 kts 102°
2026-04-23 11:13 31.94208 -106.91433 34853 ft 515 kts 102°
2026-04-23 11:13 31.93398 -106.87320 34997 ft 515 kts 103°
2026-04-23 11:13 31.92587 -106.83218 35025 ft 515 kts 103°
2026-04-23 11:14 31.90959 -106.75012 35041 ft 515 kts 103°
2026-04-23 11:14 31.89328 -106.66805 35043 ft 515 kts 103°
2026-04-23 11:15 31.87704 -106.58603 35018 ft 515 kts 103°
2026-04-23 11:15 31.86075 -106.50447 34981 ft 516 kts 103°
2026-04-23 11:16 31.84414 -106.42184 34998 ft 516 kts 103°
2026-04-23 11:16 31.82773 -106.34030 35014 ft 516 kts 103°
2026-04-23 11:17 31.81087 -106.25834 34958 ft 516 kts 105°
2026-04-23 11:17 31.79134 -106.17715 34932 ft 515 kts 107°
2026-04-23 11:18 31.77043 -106.09661 34886 ft 515 kts 108°
2026-04-23 11:18 31.74984 -106.01595 34837 ft 515 kts 107°
2026-04-23 11:19 31.72979 -105.93514 34798 ft 515 kts 106°
2026-04-23 11:19 31.70982 -105.85432 34806 ft 515 kts 107°
2026-04-23 11:20 31.68970 -105.77366 34802 ft 515 kts 107°
2026-04-23 11:20 31.66943 -105.69302 34804 ft 515 kts 107°
2026-04-23 11:21 31.64907 -105.61242 34801 ft 514 kts 107°
2026-04-23 11:21 31.62872 -105.53200 34818 ft 513 kts 107°
2026-04-23 11:22 31.60840 -105.45181 34821 ft 513 kts 107°
2026-04-23 11:22 31.58819 -105.37218 34824 ft 512 kts 107°
2026-04-23 11:23 31.56784 -105.29209 34827 ft 512 kts 107°
2026-04-23 11:23 31.54745 -105.21226 34830 ft 510 kts 107°
2026-04-23 11:24 31.52701 -105.13268 34841 ft 509 kts 107°
2026-04-23 11:24 31.50662 -105.05339 34834 ft 507 kts 107°
2026-04-23 11:25 31.48629 -104.97428 34831 ft 507 kts 107°
2026-04-23 11:25 31.46594 -104.89533 34787 ft 506 kts 106°
2026-04-23 11:26 31.44548 -104.81664 34812 ft 505 kts 106°
2026-04-23 11:26 31.42496 -104.73795 34826 ft 505 kts 106°
2026-04-23 11:27 31.40447 -104.65929 34824 ft 505 kts 106°
2026-04-23 11:27 31.38401 -104.58072 34818 ft 505 kts 106°
2026-04-23 11:28 31.36343 -104.50218 34817 ft 504 kts 107°
2026-04-23 11:28 31.34287 -104.42377 34827 ft 504 kts 107°
2026-04-23 11:29 31.32237 -104.34583 34821 ft 504 kts 107°
2026-04-23 11:29 31.30171 -104.26753 34825 ft 504 kts 107°
2026-04-23 11:30 31.28091 -104.18922 34822 ft 504 kts 107°
2026-04-23 11:30 31.26007 -104.11111 34828 ft 503 kts 106°
2026-04-23 11:31 31.23930 -104.03321 34825 ft 501 kts 106°
2026-04-23 11:31 31.21860 -103.95550 34824 ft 501 kts 106°
2026-04-23 11:32 31.19788 -103.87788 34814 ft 500 kts 106°
2026-04-23 11:32 31.17703 -103.80043 34850 ft 500 kts 107°
2026-04-23 11:33 31.15614 -103.72309 34842 ft 499 kts 107°
2026-04-23 11:33 31.13528 -103.64583 34841 ft 499 kts 107°
2026-04-23 11:34 31.11443 -103.56875 34838 ft 498 kts 107°
2026-04-23 11:34 31.09358 -103.49154 34826 ft 498 kts 108°
2026-04-23 11:35 31.07264 -103.41454 34801 ft 497 kts 107°
2026-04-23 11:35 31.05160 -103.33779 34787 ft 497 kts 107°
2026-04-23 11:36 31.03067 -103.26147 34802 ft 496 kts 107°
2026-04-23 11:36 31.00970 -103.18487 34800 ft 496 kts 107°
2026-04-23 11:37 30.98857 -103.10782 34807 ft 495 kts 107°
2026-04-23 11:37 30.96768 -103.03193 34810 ft 495 kts 108°
2026-04-23 11:38 30.95011 -102.95468 34804 ft 492 kts 96°
2026-04-23 11:38 30.94225 -102.87566 34802 ft 491 kts 94°
2026-04-23 11:39 30.93427 -102.79664 34935 ft 491 kts 94°
2026-04-23 11:39 30.92618 -102.71764 34907 ft 491 kts 95°
2026-04-23 11:40 30.91806 -102.63869 34871 ft 491 kts 95°
2026-04-23 11:40 30.91003 -102.55971 34842 ft 491 kts 94°
2026-04-23 11:41 30.90201 -102.48085 34814 ft 490 kts 94°
2026-04-23 11:41 30.89386 -102.40213 34819 ft 489 kts 94°
2026-04-23 11:42 30.88554 -102.32361 34835 ft 488 kts 94°
2026-04-23 11:42 30.87723 -102.24524 34838 ft 487 kts 94°
2026-04-23 11:43 30.86891 -102.16695 34841 ft 487 kts 94°
2026-04-23 11:43 30.86061 -102.08883 34838 ft 486 kts 94°
2026-04-23 11:44 30.85231 -102.01063 34845 ft 486 kts 95°
2026-04-23 11:44 30.84398 -101.93323 34849 ft 485 kts 95°
2026-04-23 11:45 30.83555 -101.85546 34844 ft 484 kts 95°
2026-04-23 11:45 30.82708 -101.77787 34844 ft 483 kts 95°
2026-04-23 11:46 30.81856 -101.70024 34842 ft 483 kts 95°
2026-04-23 11:46 30.81009 -101.62279 34848 ft 483 kts 95°
2026-04-23 11:47 30.80151 -101.54523 34841 ft 483 kts 95°
2026-04-23 11:47 30.79285 -101.46772 34835 ft 483 kts 95°
2026-04-23 11:48 30.78423 -101.39073 34838 ft 483 kts 95°
2026-04-23 11:48 30.77554 -101.31315 34839 ft 483 kts 95°
2026-04-23 11:49 30.76683 -101.23566 34980 ft 483 kts 95°
2026-04-23 11:49 30.75805 -101.15816 34950 ft 484 kts 95°
2026-04-23 11:50 30.74916 -101.08049 34950 ft 484 kts 95°
2026-04-23 11:50 30.74019 -101.00301 34923 ft 484 kts 95°
2026-04-23 11:51 30.73119 -100.92546 34895 ft 484 kts 95°
2026-04-23 11:51 30.72217 -100.84798 34919 ft 484 kts 95°
2026-04-23 11:52 30.71324 -100.77100 34950 ft 484 kts 95°
2026-04-23 11:52 30.70418 -100.69355 34973 ft 484 kts 96°
2026-04-23 11:53 30.69499 -100.61601 34979 ft 484 kts 96°
2026-04-23 11:53 30.68576 -100.53858 34976 ft 484 kts 96°
2026-04-23 11:54 30.67652 -100.46122 34946 ft 484 kts 96°
2026-04-23 11:54 30.66723 -100.38384 34912 ft 484 kts 96°
2026-04-23 11:55 30.65795 -100.30641 34853 ft 484 kts 96°
2026-04-23 11:55 30.64863 -100.22908 34854 ft 484 kts 96°
2026-04-23 11:56 30.63925 -100.15175 34864 ft 483 kts 96°
2026-04-23 11:56 30.62979 -100.07451 34892 ft 483 kts 96°
2026-04-23 11:57 30.62030 -99.99725 34911 ft 483 kts 96°
2026-04-23 11:57 30.61080 -99.92015 34932 ft 482 kts 96°
2026-04-23 11:58 30.60285 -99.85610 34946 ft 482 kts 96°
2026-04-23 11:58 30.59324 -99.77908 34968 ft 482 kts 96°
2026-04-23 11:59 30.58358 -99.70215 34948 ft 482 kts 96°
2026-04-23 11:59 30.57380 -99.62526 34932 ft 482 kts 96°
2026-04-23 12:00 30.56400 -99.54835 34909 ft 482 kts 96°
2026-04-23 12:00 30.55410 -99.47134 34903 ft 482 kts 96°
2026-04-23 12:01 30.54421 -99.39447 34886 ft 482 kts 96°
2026-04-23 12:01 30.53426 -99.31753 34878 ft 482 kts 96°
2026-04-23 12:02 30.52421 -99.24075 34876 ft 482 kts 96°
2026-04-23 12:02 30.51427 -99.16397 34885 ft 481 kts 96°
2026-04-23 12:03 30.50426 -99.08723 34890 ft 481 kts 96°
2026-04-23 12:03 30.49426 -99.01099 34899 ft 481 kts 96°
2026-04-23 12:04 30.48412 -98.93442 34910 ft 480 kts 96°
2026-04-23 12:04 30.47398 -98.85793 34910 ft 479 kts 96°
2026-04-23 12:05 30.46381 -98.78163 34919 ft 479 kts 96°
2026-04-23 12:05 30.45356 -98.70528 34923 ft 479 kts 96°
2026-04-23 12:06 30.44332 -98.62907 34940 ft 478 kts 96°
2026-04-23 12:06 30.42789 -98.51498 34935 ft 477 kts 96°
2026-04-23 12:07 30.41756 -98.43907 34933 ft 477 kts 96°
2026-04-23 12:07 30.40711 -98.36315 34985 ft 477 kts 96°
2026-04-23 12:08 30.39668 -98.28728 34987 ft 477 kts 96°
2026-04-23 12:08 30.38621 -98.21148 34981 ft 476 kts 96°
2026-04-23 12:09 30.37581 -98.13620 34999 ft 476 kts 96°
2026-04-23 12:09 30.36529 -98.06006 35006 ft 476 kts 96°
2026-04-23 12:10 30.35487 -97.98492 35003 ft 475 kts 96°
2026-04-23 12:10 30.34430 -97.90941 35015 ft 475 kts 96°
2026-04-23 12:11 30.33359 -97.83410 34998 ft 474 kts 96°
2026-04-23 12:11 30.32287 -97.75884 34965 ft 474 kts 96°
2026-04-23 12:12 30.31213 -97.68364 34957 ft 473 kts 96°
2026-04-23 12:12 30.30138 -97.60850 34959 ft 473 kts 96°
2026-04-23 12:13 30.29065 -97.53341 34972 ft 472 kts 96°
2026-04-23 12:13 30.27990 -97.45857 34936 ft 471 kts 96°
2026-04-23 12:14 30.26906 -97.38388 34933 ft 470 kts 96°
2026-04-23 12:14 30.25824 -97.30929 34931 ft 470 kts 96°
2026-04-23 12:15 30.24733 -97.23473 34915 ft 470 kts 96°
2026-04-23 12:15 30.23655 -97.16073 34912 ft 470 kts 96°
2026-04-23 12:16 30.22553 -97.08622 35019 ft 470 kts 96°
2026-04-23 12:16 30.21448 -97.01172 35027 ft 470 kts 96°
2026-04-23 12:17 30.20349 -96.93721 35010 ft 470 kts 96°
2026-04-23 12:17 30.19244 -96.86273 35020 ft 471 kts 96°
2026-04-23 12:18 30.18130 -96.78818 34988 ft 470 kts 96°
2026-04-23 12:18 30.17013 -96.71366 34957 ft 470 kts 96°
2026-04-23 12:19 30.15896 -96.63925 34894 ft 470 kts 96°
2026-04-23 12:19 30.14769 -96.56487 34846 ft 470 kts 96°
2026-04-23 12:20 30.13645 -96.49107 34835 ft 469 kts 96°
2026-04-23 12:20 30.12516 -96.41681 34865 ft 469 kts 97°
2026-04-23 12:21 30.11377 -96.34274 34843 ft 468 kts 97°
2026-04-23 12:21 30.10232 -96.26874 34841 ft 468 kts 97°
2026-04-23 12:22 30.09094 -96.19488 34830 ft 467 kts 97°
2026-04-23 12:22 30.07958 -96.12107 34847 ft 467 kts 97°
2026-04-23 12:23 30.06815 -96.04729 34897 ft 466 kts 97°
2026-04-23 12:23 30.05670 -95.97361 34918 ft 466 kts 97°
2026-04-23 12:24 30.04507 -95.90000 34957 ft 466 kts 97°
2026-04-23 12:24 30.03345 -95.82649 34958 ft 465 kts 97°
2026-04-23 12:25 30.02192 -95.75297 34983 ft 465 kts 97°
2026-04-23 12:25 30.01036 -95.67954 34989 ft 465 kts 97°
2026-04-23 12:26 29.99881 -95.60658 35026 ft 464 kts 97°
2026-04-23 12:26 29.98708 -95.53334 35008 ft 464 kts 97°
2026-04-23 12:27 29.97530 -95.46017 35008 ft 464 kts 97°
2026-04-23 12:27 29.96352 -95.38693 35009 ft 464 kts 97°
2026-04-23 12:28 29.95205 -95.31365 35027 ft 463 kts 95°
2026-04-23 12:28 29.94261 -95.24026 35025 ft 462 kts 94°
2026-04-23 12:29 29.93381 -95.16709 35024 ft 461 kts 94°
2026-04-23 12:29 29.92457 -95.09401 35024 ft 460 kts 95°
2026-04-23 12:30 29.91494 -95.02101 35023 ft 460 kts 95°
2026-04-23 12:30 29.90517 -94.94811 35044 ft 460 kts 94°
2026-04-23 12:31 29.89563 -94.87569 35044 ft 460 kts 94°
2026-04-23 12:31 29.88611 -94.80287 35043 ft 459 kts 94°
2026-04-23 12:32 29.87647 -94.73012 35038 ft 459 kts 95°
2026-04-23 12:32 29.86671 -94.65757 35038 ft 458 kts 95°
2026-04-23 12:33 29.85693 -94.58496 35034 ft 458 kts 95°
2026-04-23 12:33 29.84720 -94.51244 35043 ft 458 kts 94°
2026-04-23 12:34 29.83748 -94.43987 35041 ft 458 kts 94°
2026-04-23 12:34 29.82779 -94.36789 35038 ft 457 kts 94°
2026-04-23 12:35 29.81789 -94.29555 35035 ft 457 kts 95°
2026-04-23 12:35 29.80788 -94.22314 35032 ft 458 kts 95°
2026-04-23 12:36 29.79786 -94.15079 35045 ft 457 kts 95°
2026-04-23 12:36 29.78792 -94.07859 35042 ft 456 kts 95°
2026-04-23 12:37 29.77799 -94.00645 35037 ft 456 kts 95°
2026-04-23 12:37 29.76798 -93.93439 35023 ft 456 kts 94°
2026-04-23 12:38 29.75790 -93.86233 35017 ft 456 kts 95°
2026-04-23 12:38 29.74775 -93.79026 35035 ft 456 kts 95°
2026-04-23 12:39 29.73771 -93.71877 35040 ft 455 kts 95°
2026-04-23 12:39 29.72749 -93.64649 35040 ft 455 kts 95°
2026-04-23 12:40 29.71730 -93.57473 35038 ft 454 kts 95°
2026-04-23 12:40 29.70718 -93.50356 35044 ft 454 kts 96°
2026-04-23 12:41 29.69690 -93.43185 35043 ft 454 kts 96°
2026-04-23 12:41 29.68656 -93.36021 35042 ft 454 kts 96°
2026-04-23 12:42 29.67618 -93.28857 35050 ft 454 kts 96°
2026-04-23 12:42 29.66577 -93.21698 35045 ft 454 kts 96°
2026-04-23 12:43 29.65534 -93.14533 35053 ft 454 kts 96°
2026-04-23 12:43 29.64500 -93.07369 35055 ft 454 kts 96°
2026-04-23 12:44 29.63452 -93.00214 35078 ft 454 kts 96°
2026-04-23 12:44 29.62397 -92.93071 35075 ft 453 kts 96°
2026-04-23 12:45 29.61345 -92.85945 35077 ft 452 kts 96°
2026-04-23 12:45 29.60287 -92.78833 35077 ft 451 kts 96°
2026-04-23 12:46 29.59234 -92.71722 35076 ft 451 kts 96°
2026-04-23 12:46 29.58349 -92.65823 35085 ft 451 kts 96°
2026-04-23 12:47 29.57102 -92.57571 35068 ft 451 kts 96°
2026-04-23 12:47 29.56208 -92.51618 35064 ft 451 kts 96°
2026-04-23 12:48 29.54966 -92.43372 35067 ft 451 kts 96°
2026-04-23 12:48 29.54064 -92.37423 35061 ft 451 kts 96°
2026-04-23 12:49 29.52980 -92.30327 35063 ft 451 kts 96°
2026-04-23 12:49 29.51900 -92.23284 35075 ft 451 kts 97°
2026-04-23 12:50 29.50813 -92.16183 35060 ft 451 kts 97°
2026-04-23 12:50 29.49719 -92.09091 35064 ft 452 kts 97°
2026-04-23 12:51 29.48625 -92.01983 35064 ft 452 kts 97°
2026-04-23 12:51 29.47526 -91.94871 35075 ft 453 kts 97°
2026-04-23 12:52 29.46422 -91.87762 35086 ft 453 kts 97°
2026-04-23 12:52 29.45312 -91.80643 35087 ft 453 kts 97°
2026-04-23 12:53 29.44199 -91.73529 35086 ft 453 kts 97°
2026-04-23 12:53 29.43078 -91.66420 35088 ft 453 kts 97°
2026-04-23 12:54 29.41961 -91.59307 35093 ft 453 kts 97°
2026-04-23 12:54 29.40839 -91.52195 35114 ft 453 kts 98°
2026-04-23 12:55 29.39702 -91.45091 35103 ft 453 kts 98°
2026-04-23 12:55 29.38572 -91.38037 35099 ft 453 kts 98°
2026-04-23 12:56 29.37443 -91.30941 35098 ft 453 kts 98°
2026-04-23 12:56 29.36295 -91.23838 35096 ft 453 kts 98°
2026-04-23 12:57 29.35146 -91.16742 35089 ft 453 kts 98°
2026-04-23 12:57 29.34000 -91.09643 35107 ft 453 kts 98°
2026-04-23 12:58 29.32851 -91.02559 35102 ft 451 kts 98°
2026-04-23 12:58 29.31693 -90.95491 35099 ft 451 kts 98°
2026-04-23 12:59 29.30547 -90.88476 35099 ft 450 kts 98°
2026-04-23 12:59 29.29392 -90.81430 35096 ft 450 kts 98°
2026-04-23 13:00 29.28228 -90.74380 35106 ft 450 kts 99°
2026-04-23 13:00 29.27066 -90.67341 35106 ft 449 kts 99°
2026-04-23 13:01 29.25900 -90.60317 35108 ft 449 kts 99°
2026-04-23 13:01 29.24738 -90.53291 35091 ft 449 kts 99°
2026-04-23 13:02 29.23568 -90.46260 35070 ft 450 kts 99°
2026-04-23 13:02 29.22381 -90.39200 35072 ft 452 kts 99°
2026-04-23 13:03 29.21193 -90.32131 35099 ft 452 kts 99°
2026-04-23 13:03 29.20012 -90.25108 35108 ft 452 kts 99°
2026-04-23 13:04 29.18815 -90.18048 35108 ft 452 kts 99°
2026-04-23 13:04 29.17619 -90.10995 35107 ft 451 kts 99°
2026-04-23 13:05 29.16309 -90.03967 35109 ft 452 kts 102°
2026-04-23 13:05 29.14842 -89.96982 35120 ft 451 kts 103°
2026-04-23 13:06 29.12640 -89.86529 35115 ft 450 kts 102°
2026-04-23 13:07 29.11218 -89.79567 35119 ft 449 kts 102°
2026-04-23 13:07 29.09803 -89.72608 35117 ft 449 kts 102°
2026-04-23 13:08 29.08387 -89.65710 35112 ft 448 kts 102°
2026-04-23 13:08 29.06951 -89.58778 35110 ft 448 kts 102°
2026-04-23 13:09 29.05515 -89.51853 35117 ft 448 kts 102°
2026-04-23 13:09 29.04079 -89.44930 35115 ft 448 kts 102°
2026-04-23 13:10 29.02636 -89.38003 35115 ft 448 kts 102°
2026-04-23 13:10 29.01182 -89.31085 35112 ft 447 kts 102°
2026-04-23 13:11 28.99735 -89.24174 35112 ft 447 kts 102°
2026-04-23 13:11 28.98293 -89.17273 35131 ft 446 kts 103°
2026-04-23 13:12 28.96849 -89.10405 35129 ft 444 kts 103°
2026-04-23 13:12 28.95405 -89.03569 35125 ft 442 kts 103°
2026-04-23 13:13 28.93955 -88.96736 35076 ft 444 kts 103°
2026-04-23 13:13 28.92499 -88.89867 35075 ft 446 kts 103°
2026-04-23 13:14 28.91043 -88.83016 35083 ft 448 kts 103°
2026-04-23 13:14 28.89562 -88.76102 35086 ft 449 kts 103°
2026-04-23 13:15 28.88061 -88.69186 35087 ft 450 kts 105°
2026-04-23 13:15 28.86274 -88.62340 35096 ft 450 kts 108°
2026-04-23 13:16 28.84303 -88.55556 35103 ft 451 kts 108°
2026-04-23 13:16 28.82355 -88.48754 35109 ft 451 kts 108°
2026-04-23 13:17 28.80466 -88.41938 35130 ft 450 kts 108°
2026-04-23 13:17 28.78588 -88.35134 35131 ft 449 kts 108°
2026-04-23 13:18 28.76700 -88.28354 35124 ft 449 kts 108°
2026-04-23 13:18 28.74800 -88.21582 35122 ft 448 kts 108°
2026-04-23 13:19 28.72895 -88.14826 35123 ft 448 kts 108°
2026-04-23 13:19 28.71001 -88.08073 35126 ft 447 kts 108°
2026-04-23 13:20 28.69109 -88.01323 35127 ft 447 kts 108°
2026-04-23 13:20 28.67208 -87.94581 35124 ft 447 kts 108°
2026-04-23 13:21 28.65301 -87.87852 35120 ft 447 kts 108°
2026-04-23 13:21 28.63387 -87.81115 35074 ft 449 kts 109°
2026-04-23 13:22 28.61461 -87.74323 35073 ft 452 kts 109°
2026-04-23 13:22 28.59523 -87.67493 35080 ft 454 kts 109°
2026-04-23 13:23 28.57584 -87.60689 35088 ft 456 kts 109°
2026-04-23 13:23 28.55615 -87.53834 35095 ft 456 kts 109°
2026-04-23 13:24 28.53646 -87.46967 35097 ft 457 kts 109°
2026-04-23 13:24 28.51675 -87.40105 35101 ft 457 kts 109°
2026-04-23 13:25 28.49699 -87.33231 35112 ft 457 kts 109°
2026-04-23 13:25 28.47722 -87.26360 35121 ft 457 kts 110°
2026-04-23 13:26 28.45742 -87.19497 35127 ft 457 kts 110°
2026-04-23 13:26 28.43753 -87.12639 35130 ft 457 kts 110°
2026-04-23 13:27 28.41761 -87.05779 35135 ft 457 kts 110°
2026-04-23 13:27 28.39769 -86.98930 35134 ft 457 kts 110°
2026-04-23 13:28 28.37761 -86.92027 35114 ft 466 kts 110°
2026-04-23 13:28 28.35688 -86.84944 35115 ft 480 kts 110°
2026-04-23 13:29 28.33556 -86.77675 35121 ft 488 kts 110°
2026-04-23 13:29 28.31398 -86.70340 35121 ft 492 kts 110°
2026-04-23 13:30 28.29246 -86.62966 35124 ft 493 kts 110°
2026-04-23 13:30 28.27106 -86.55576 35129 ft 493 kts 110°
2026-04-23 13:31 28.24956 -86.48189 35132 ft 493 kts 110°
2026-04-23 13:31 28.22784 -86.40815 35133 ft 493 kts 110°
2026-04-23 13:32 28.20608 -86.33445 35131 ft 493 kts 110°
2026-04-23 13:32 28.18435 -86.26067 35131 ft 493 kts 110°
2026-04-23 13:33 28.16275 -86.18740 35136 ft 493 kts 110°
2026-04-23 13:33 28.14098 -86.11368 35145 ft 493 kts 110°
2026-04-23 13:34 28.11922 -86.04007 35147 ft 493 kts 110°
2026-04-23 13:34 28.09736 -85.96658 35147 ft 492 kts 110°
2026-04-23 13:35 28.07548 -85.89312 35146 ft 492 kts 110°
2026-04-23 13:35 28.05720 -85.83202 35149 ft 493 kts 110°
2026-04-23 13:36 28.03518 -85.75859 35145 ft 492 kts 110°
2026-04-23 13:36 28.01316 -85.68525 35145 ft 492 kts 110°
2026-04-23 13:37 27.99114 -85.61189 35121 ft 492 kts 110°
2026-04-23 13:37 27.96906 -85.53855 35126 ft 493 kts 110°
2026-04-23 13:38 27.94690 -85.46503 35129 ft 494 kts 110°
2026-04-23 13:38 27.92471 -85.39148 35135 ft 494 kts 110°
2026-04-23 13:39 27.90246 -85.31791 35143 ft 494 kts 110°
2026-04-23 13:39 27.88181 -85.24371 35152 ft 496 kts 102°
2026-04-23 13:40 27.86910 -85.16711 35150 ft 496 kts 101°
2026-04-23 13:40 27.85628 -85.09101 35155 ft 496 kts 102°
2026-04-23 13:41 27.84330 -85.01445 35165 ft 496 kts 102°
2026-04-23 13:41 27.83039 -84.93805 35168 ft 495 kts 101°
2026-04-23 13:42 27.81753 -84.86169 35162 ft 494 kts 100°
2026-04-23 13:42 27.81475 -84.78440 35169 ft 494 kts 86°
2026-04-23 13:43 27.81859 -84.70689 35170 ft 494 kts 86°
2026-04-23 13:43 27.82240 -84.62935 35165 ft 494 kts 86°
2026-04-23 13:44 27.82604 -84.55183 35165 ft 494 kts 86°
2026-04-23 13:44 27.82960 -84.47425 35166 ft 495 kts 86°
2026-04-23 13:45 27.83317 -84.39661 35170 ft 495 kts 86°
2026-04-23 13:45 27.83676 -84.31883 35174 ft 495 kts 86°
2026-04-23 13:46 27.84020 -84.24159 35168 ft 496 kts 87°
2026-04-23 13:46 27.84362 -84.16383 35178 ft 496 kts 87°
2026-04-23 13:47 27.84702 -84.08598 35176 ft 496 kts 87°
2026-04-23 13:47 27.85049 -84.00823 35179 ft 496 kts 87°
2026-04-23 13:48 27.85380 -83.93044 35177 ft 496 kts 87°
2026-04-23 13:48 27.85706 -83.85255 35072 ft 502 kts 87°
2026-04-23 13:48 27.85872 -83.81287 34828 ft 506 kts 87°
2026-04-23 13:49 27.86038 -83.77302 34089 ft 511 kts 87°
2026-04-23 13:49 27.86205 -83.73296 33564 ft 506 kts 87°
2026-04-23 13:49 27.86370 -83.69336 32849 ft 506 kts 87°
2026-04-23 13:49 27.86533 -83.65350 32041 ft 508 kts 87°
2026-04-23 13:50 27.86695 -83.61358 31351 ft 508 kts 87°
2026-04-23 13:50 27.86856 -83.57381 30813 ft 505 kts 87°
2026-04-23 13:50 27.87013 -83.53433 30233 ft 503 kts 87°
2026-04-23 13:50 27.87166 -83.49508 29797 ft 495 kts 87°
2026-04-23 13:51 27.87314 -83.45648 29253 ft 490 kts 87°
2026-04-23 13:51 27.87459 -83.41856 28683 ft 486 kts 87°
2026-04-23 13:51 27.87602 -83.38065 28129 ft 481 kts 87°
2026-04-23 13:51 27.87742 -83.34303 27588 ft 477 kts 87°
2026-04-23 13:52 27.87883 -83.30583 27055 ft 472 kts 87°
2026-04-23 13:52 27.88026 -83.26891 26526 ft 468 kts 87°
2026-04-23 13:52 27.88130 -83.23228 26018 ft 463 kts 88°
2026-04-23 13:52 27.88162 -83.19615 25651 ft 455 kts 89°
2026-04-23 13:53 27.88149 -83.16082 25443 ft 444 kts 90°
2026-04-23 13:53 27.88123 -83.12628 25207 ft 436 kts 90°
2026-04-23 13:53 27.88098 -83.09220 24965 ft 432 kts 90°
2026-04-23 13:53 27.88084 -83.05836 24730 ft 429 kts 90°
2026-04-23 13:54 27.88079 -83.02466 24496 ft 427 kts 90°
2026-04-23 13:54 27.88079 -82.99111 24257 ft 426 kts 89°
2026-04-23 13:54 27.88081 -82.95776 24024 ft 424 kts 89°
2026-04-23 13:54 27.88088 -82.92449 23792 ft 422 kts 89°
2026-04-23 13:55 27.88095 -82.89137 23536 ft 420 kts 89°
2026-04-23 13:55 27.88099 -82.85841 23305 ft 419 kts 89°
2026-04-23 13:55 27.88099 -82.82557 23075 ft 417 kts 90°
2026-04-23 13:55 27.88095 -82.79282 22839 ft 416 kts 90°
2026-04-23 13:56 27.88087 -82.76018 22607 ft 415 kts 90°
2026-04-23 13:56 27.88080 -82.72758 22380 ft 414 kts 90°
2026-04-23 13:56 27.88074 -82.69511 22154 ft 413 kts 90°
2026-04-23 13:56 27.88068 -82.66267 21927 ft 411 kts 90°
2026-04-23 13:57 27.88042 -82.63039 21710 ft 410 kts 90°
2026-04-23 13:57 27.87997 -82.59825 21466 ft 408 kts 90°
2026-04-23 13:57 27.87943 -82.56630 21242 ft 406 kts 91°
2026-04-23 13:57 27.87885 -82.53444 21019 ft 405 kts 91°
2026-04-23 13:58 27.87826 -82.50268 20796 ft 403 kts 91°
2026-04-23 13:58 27.87772 -82.47150 20586 ft 401 kts 90°
2026-04-23 13:58 27.87744 -82.43964 20363 ft 399 kts 86°
2026-04-23 13:58 27.88096 -82.40907 20143 ft 396 kts 75°
2026-04-23 13:59 27.88939 -82.37959 19876 ft 393 kts 64°
2026-04-23 13:59 27.90070 -82.35162 19609 ft 391 kts 63°
2026-04-23 13:59 27.91200 -82.32369 19346 ft 389 kts 63°
2026-04-23 13:59 27.92319 -82.29585 19081 ft 387 kts 63°
2026-04-23 14:00 27.93054 -82.27750 18877 ft 387 kts 63°
2026-04-23 14:00 27.94532 -82.24049 18372 ft 383 kts 63°
2026-04-23 14:00 27.95624 -82.21311 18097 ft 381 kts 63°
2026-04-23 14:00 27.96710 -82.18585 17836 ft 379 kts 63°
2026-04-23 14:01 27.97789 -82.15874 17591 ft 378 kts 63°
2026-04-23 14:01 27.98869 -82.13170 17337 ft 376 kts 63°
2026-04-23 14:01 27.99943 -82.10485 17079 ft 374 kts 63°
2026-04-23 14:01 28.01018 -82.07805 16826 ft 373 kts 63°
2026-04-23 14:02 28.02085 -82.05141 16577 ft 371 kts 63°
2026-04-23 14:02 28.03130 -82.02517 16327 ft 369 kts 63°
2026-04-23 14:02 28.04166 -81.99910 16160 ft 357 kts 63°
2026-04-23 14:02 28.05167 -81.97389 16020 ft 346 kts 63°
2026-04-23 14:03 28.06147 -81.94931 15733 ft 340 kts 63°
2026-04-23 14:03 28.07127 -81.92511 15436 ft 336 kts 63°
2026-04-23 14:03 28.08103 -81.90118 15123 ft 334 kts 63°
2026-04-23 14:03 28.09078 -81.87745 14803 ft 331 kts 62°
2026-04-23 14:04 28.10103 -81.85419 14482 ft 329 kts 60°
2026-04-23 14:04 28.11163 -81.83135 14166 ft 327 kts 59°
2026-04-23 14:04 28.12239 -81.80875 13834 ft 325 kts 59°
2026-04-23 14:04 28.13311 -81.78635 13510 ft 322 kts 59°
2026-04-23 14:05 28.14369 -81.76416 13191 ft 319 kts 59°
2026-04-23 14:05 28.15409 -81.74215 12885 ft 316 kts 60°
2026-04-23 14:05 28.16438 -81.72023 12582 ft 314 kts 60°
2026-04-23 14:05 28.17455 -81.69842 12270 ft 312 kts 60°
2026-04-23 14:06 28.18464 -81.67676 11981 ft 310 kts 60°
2026-04-23 14:06 28.19463 -81.65525 11693 ft 307 kts 60°
2026-04-23 14:06 28.20453 -81.63392 11395 ft 304 kts 61°
2026-04-23 14:06 28.21434 -81.61275 11097 ft 302 kts 60°
2026-04-23 14:07 28.22410 -81.59170 10806 ft 300 kts 61°
2026-04-23 14:07 28.24347 -81.55007 10236 ft 296 kts 62°
2026-04-23 14:07 28.25410 -81.53026 9936 ft 293 kts 52°
2026-04-23 14:08 28.26615 -81.51175 9637 ft 290 kts 52°
2026-04-23 14:08 28.27790 -81.49355 9358 ft 288 kts 53°
2026-04-23 14:08 28.28983 -81.47499 9067 ft 286 kts 54°
2026-04-23 14:08 28.30136 -81.45708 8782 ft 284 kts 54°
2026-04-23 14:09 28.31441 -81.44053 8504 ft 282 kts 39°
2026-04-23 14:09 28.33116 -81.42924 8244 ft 279 kts 21°
2026-04-23 14:09 28.34971 -81.42440 8115 ft 270 kts
2026-04-23 14:09 28.36823 -81.42420 7986 ft 261 kts
2026-04-23 14:10 28.38603 -81.42425 7861 ft 251 kts
2026-04-23 14:10 28.40345 -81.42425 7631 ft 250 kts
2026-04-23 14:10 28.42078 -81.42421 7402 ft 248 kts
2026-04-23 14:10 28.43807 -81.42419 7163 ft 248 kts
2026-04-23 14:11 28.45505 -81.42413 6939 ft 241 kts
2026-04-23 14:11 28.47168 -81.42408 6671 ft 237 kts
2026-04-23 14:11 28.48812 -81.42413 6431 ft 235 kts
2026-04-23 14:11 28.50438 -81.42424 6215 ft 232 kts
2026-04-23 14:12 28.52043 -81.42440 6036 ft 229 kts
2026-04-23 14:12 28.53623 -81.42461 5976 ft 224 kts
2026-04-23 14:12 28.55177 -81.42532 6016 ft 223 kts 359°
2026-04-23 14:12 28.56726 -81.42637 6000 ft 223 kts 359°
2026-04-23 14:13 28.58280 -81.42751 5991 ft 223 kts 359°
2026-04-23 14:13 28.59828 -81.42868 5990 ft 223 kts 359°
2026-04-23 14:13 28.61378 -81.42985 5990 ft 223 kts 359°
2026-04-23 14:13 28.62924 -81.43099 5991 ft 223 kts 359°
2026-04-23 14:14 28.64474 -81.43211 5990 ft 223 kts 359°
2026-04-23 14:14 28.66007 -81.43320 5994 ft 223 kts 359°
2026-04-23 14:14 28.67559 -81.43429 5994 ft 224 kts 359°
2026-04-23 14:14 28.69111 -81.43533 5990 ft 223 kts
2026-04-23 14:15 28.70603 -81.43200 5989 ft 218 kts 28°
2026-04-23 14:15 28.71749 -81.42134 6000 ft 213 kts 56°
2026-04-23 14:15 28.72333 -81.40612 5777 ft 209 kts 82°
2026-04-23 14:15 28.72230 -81.38985 5486 ft 207 kts 107°
2026-04-23 14:16 28.71746 -81.37438 5229 ft 207 kts 109°
2026-04-23 14:16 28.71262 -81.35901 4966 ft 201 kts 109°
2026-04-23 14:16 28.70618 -81.34562 4907 ft 189 kts 127°
2026-04-23 14:16 28.69642 -81.33574 4807 ft 189 kts 146°
2026-04-23 14:17 28.68426 -81.33024 4604 ft 189 kts 167°
2026-04-23 14:17 28.67109 -81.32938 4382 ft 190 kts 177°
2026-04-23 14:17 28.65792 -81.32925 4136 ft 188 kts 177°
2026-04-23 14:17 28.64486 -81.32910 3890 ft 187 kts 176°
2026-04-23 14:18 28.63187 -81.32896 3643 ft 187 kts 177°
2026-04-23 14:18 28.61890 -81.32882 3398 ft 186 kts 177°
2026-04-23 14:18 28.60618 -81.32868 3151 ft 183 kts 178°
2026-04-23 14:18 28.59365 -81.32855 2908 ft 178 kts 177°
2026-04-23 14:19 28.58137 -81.32842 2682 ft 175 kts 177°
2026-04-23 14:19 28.56938 -81.32829 2467 ft 168 kts 176°
2026-04-23 14:19 28.55791 -81.32817 2231 ft 161 kts 176°
2026-04-23 14:19 28.54706 -81.32806 2014 ft 149 kts 176°
2026-04-23 14:20 28.53702 -81.32803 1819 ft 144 kts 177°
2026-04-23 14:20 28.52696 -81.32789 1639 ft 144 kts 176°
2026-04-23 14:20 28.51697 -81.32770 1398 ft 143 kts 176°
2026-04-23 14:20 28.50707 -81.32761 1255 ft 142 kts 177°
2026-04-23 14:21 28.49712 -81.32762 1070 ft 144 kts 176°
2026-04-23 14:21 28.48712 -81.32738 881 ft 144 kts 177°
2026-04-23 14:21 28.47713 -81.32730 699 ft 144 kts 176°
2026-04-23 14:21 28.46706 -81.32724 521 ft 146 kts 176°
2026-04-23 14:22 28.45690 -81.32705 323 ft 145 kts 176°
2026-04-23 14:22 28.44689 -81.32698 132 ft 143 kts 176°
2026-04-23 14:22 28.43782 -81.32683 106 ft 111 kts 181°
2026-04-23 14:22 28.43129 -81.32679 107 ft 79 kts 180°
2026-04-23 14:23 28.42722 -81.32675 103 ft 35 kts 175°
2026-04-23 14:23 28.42613 -81.32595 102 ft 14 kts 117°
2026-04-23 14:23 28.42568 -81.32502 106 ft 13 kts 121°
2026-04-23 14:23 28.42521 -81.32413 106 ft 13 kts 121°
2026-04-23 14:24 28.42489 -81.32354 107 ft 13 kts 121°
2026-04-23 14:24 28.42450 -81.32275 109 ft 9 kts 119°
2026-04-23 14:24 28.42419 -81.32213 111 ft 9 kts 119°
2026-04-23 14:24 28.42390 -81.32157 111 ft 4 kts 121°
2026-04-23 14:25 28.43479 -81.31288 102 ft 0 kts 324°